Regional Weather Roundup
Issued by NWS

Home | Current Version | Previous Version | Graphics & Text | Print | Product List | Glossary On
Versions: 1 2 3 4 5 6 7 8 9 10 11 12 13 14 15 16 17 18 19 20 21 22 23 24 25 26 27 28 29 30 31 32 33 34 35 36 37 38 39 40 41 42 43 44 45 46 47 48 49
000
ASUS45 KBOU 010007
RWRCO

WEATHER ROUNDUP FOR COLORADO
NATIONAL WEATHER SERVICE DENVER/BOULDER CO
600 PM MDT TUE SEP 30 2014

NOTE: "FAIR" INDICATES FEW OR NO CLOUDS BELOW 12000 FEET WITH NO
SIGNIFICANT WEATHER AND/OR OBSTRUCTIONS TO VISIBILITY.

COZ001>005-013-030-031-010100-
...NORTHWEST COLORADO...

CITY           SKY/WX    TMP DP  RH WIND       PRES   REMARKS
CRAIG          CLOUDY    51  42  71 S5        29.96S
HAYDEN         CLOUDY    46  39  76 SW3       29.97S
MEEKER         LGT RAIN  50  43  77 NE5       29.96F
MOUNT WERNER   NOT AVBL
STEAMBOAT SPGS CLOUDY    45  40  83 CALM      29.98F
WALDEN         CLOUDY    43  32  65 SW10      29.96R
$$

COZ006>008-011-010100-
...WEST CENTRAL VALLEYS...

CITY           SKY/WX    TMP DP  RH WIND       PRES   REMARKS
GRAND JUNCTION MOSUNNY   61  43  51 N6        29.90F
MONTROSE       PTCLDY    60  41  49 CALM      29.97S
EAGLE          MOCLDY    52  41  66 S13       29.98F
RIFLE          MOCLDY    60  41  49 W16       29.92S
DELTA          MOSUNNY   64  46  52 S5        29.93S HAZE
NUCLA          MOSUNNY   63  37  39 W10       30.00S
$$

COZ017>023-064>068-010100-
...SOUTHWEST COLORADO...

CITY           SKY/WX    TMP DP  RH WIND       PRES   REMARKS
DURANGO        SUNNY     59  38  45 W13       30.00S
CORTEZ         SUNNY     63  37  38 NW8       29.98S
PAGOSA SPRINGS PTCLDY    55  35  47 SW7       30.05S
TELLURIDE      CLOUDY   N/A N/A N/A SW9G17    30.10S
WOLF CREEK PAS FOG       32  32 100 SW22G29   30.20R VSB<1/4 WCI  19
$$

COZ009-010-012-014-032>034-037-058>063-010100-
...CENTRAL COLORADO...

CITY           SKY/WX    TMP DP  RH WIND       PRES   REMARKS
ASPEN          CLOUDY    45  38  76 CALM      30.03R
BUENA VISTA    CLOUDY    51  29  43 NW10      29.99F
COPPER MTN     CLOUDY    34  30  86 W14G21    30.14S VSB 1   WCI  24
BERTHOUD PASS  CLOUDY    27  23  86 NW16G22   30.13S WCI  14
COTTONWOOD PAS CLOUDY    45  30  57 NW7       30.07S
GUNNISON       PTCLDY    46  37  71 CALM      30.04F
KREMMLING      CLOUDY    46  36  66 CALM      30.00S
LEADVILLE      CLOUDY    39  29  67 NW8G16    30.06R
SALIDA         PTCLDY    55  32  40 SW17      30.06F
SUNLIGHT       CLOUDY    36  36 100 CALM      30.13S
WILKERSON PASS NOT AVBL
$$

COZ069>075-010100-
...SAN LUIS VALLEY/SANGRE DE CRISTO MOUNTAINS...

CITY           SKY/WX    TMP DP  RH WIND       PRES   REMARKS
ALAMOSA        MOCLDY    60  32  34 W15       29.98S
LA VETA PASS   MOCLDY    43  28  56 SW7       30.09S
SAGUACHE       MOCLDY    52  34  50 NW13      30.00F
$$

COZ035-036-038>040-010100-
...NORTHERN COLORADO FRONT RANGE...

CITY           SKY/WX    TMP DP  RH WIND       PRES   REMARKS
DENVER INTL AP CLOUDY    62  38  40 N5        29.82S
DMNS CITY PARK   N/A     63  31  30 W2        29.82S
AURORA         MOCLDY    61  38  42 NE3       29.85R
FRONT RANGE AP NOT AVBL
ERIE MUNI ARPT CLOUDY    62  33  34 W7        29.81S
BOULDER MUN AP CLOUDY    63  32  31 W16G24    29.82R
CENTENNIAL     CLOUDY    61  36  39 CALM      29.84S
BROOMFIELD     CLOUDY    63  32  31 W3        29.83S
FORT COLLINS   CLOUDY    61  39  44 CALM      29.82R
LONGMONT       CLOUDY    63  37  38 W3        29.83R
$$

COZ041-046-047-076>085-087-088-010100-
...PIKES PEAK/PALMER DIVIDE AND SOUTHERN FOOTHILLS...

CITY           SKY/WX    TMP DP  RH WIND       PRES   REMARKS
COLO. SPRINGS  CLOUDY    65  34  31 W5        29.87R
A. F. ACADEMY  CLOUDY    62  26  26 NW16G22   29.87S
ELLICOTT       NOT AVBL
FALCON         CLOUDY    60  28  29 NW5       29.92R
FORT CARSON    CLOUDY    65  29  25 W12       29.84R
LIMON          CLOUDY    61  38  42 N8        29.84R
MONUMENT HILL  CLOUDY    54  34  47 E3        29.91S
TRINIDAD       PTCLDY    70  30  22 NW7       29.84R
$$

COZ042>045-048>051-090-091-010100-
...NORTHEAST COLORADO...

CITY           SKY/WX    TMP DP  RH WIND       PRES   REMARKS
GREELEY ARPT   CLOUDY    63  39  42 CALM      29.81R
AKRON          MOCLDY    65  38  36 SW3       29.80S
BURLINGTON     MOCLDY    68  40  35 SE6       29.78R
WRAY           MOCLDY    70  41  35 SE5       29.76R
STERLING       MOCLDY    68  46  45 SW6       29.75S
HOLYOKE        PTCLDY    68  46  45 CALM      29.76R
FORT MORGAN    MOCLDY    64  44  48 CALM      29.79F
$$

COZ086-089-092>099-010100-
...SOUTHEAST COLORADO...

CITY           SKY/WX    TMP DP  RH WIND       PRES   REMARKS
PUEBLO         MOCLDY    71  29  21 W18       29.79R
LA JUNTA       CLEAR     72  35  25 SE8       29.77R
LAMAR          CLEAR     70  42  36 E7        29.74S
SPRINGFIELD      N/A     71  33  24 S9        29.78S
$$


USA.gov is the U.S. government's official web portal to all federal, state and local government web resources and services.